Location: Castelnau-Barbarens
(43.5760°N, 0.7244°E)
Time: 19:57:40
(UTC+02:00)

ISS - Visible Passes

Search period start: 21 May 2026 00:00
Search period end: 31 May 2026 00:00
Orbit: 414 x 424 km, 51.6° (Epoch: 21 May)

Date Brightness Start Highest point End Pass type
(mag) Time Alt. Az. Time Alt. Az. Time Alt. Az.
21 May -2.3 00:14:38 10° WNW 00:16:41 32° W 00:16:41 32° W visible
21 May -3.9 23:26:51 10° WNW 23:30:13 83° SSW 23:30:39 64° SE visible
22 May -3.5 22:39:09 10° NW 22:42:28 62° NNE 22:44:38 20° ESE visible
23 May -1.3 00:16:34 10° W 00:17:34 15° WSW 00:17:34 15° WSW visible
23 May -2.8 21:51:27 10° NW 21:54:40 42° NNE 21:57:52 10° E visible
23 May -2.6 23:28:24 10° WNW 23:31:23 30° SW 23:31:35 30° SW visible
24 May -3.3 22:40:28 10° WNW 22:43:43 51° SW 22:45:38 21° SSE visible
25 May -3.8 21:52:39 10° WNW 21:56:00 85° SSW 21:59:20 10° SE visible
25 May -1.2 23:31:10 10° WSW 23:32:17 11° SW 23:32:40 11° SW visible
26 May -1.7 22:42:17 10° W 22:44:43 19° SW 22:46:48 12° S visible
